Temp
65 64 65 65 65 64 62 62 64 63 63 63 62 61 60 60 59 58 56 55 55 55
65 65 64 64 64 63 64 64 63 63 62 62 62 61 60 59 59 58 57 55 55 55
65 64 65 65 64 64 62 63 62 62 62 62 61 60 59 58 58 57 56 57 55 54
64 65 64 64 64 63 62 62 61 62 62 61 61 60 59 59 59 58 57 57 55 55
64 65 63 63 64 64 62 62 62 62 62 62 62 61 60 59 60 58 57 57 56 55
63 63 63 63 64 64 63 62 63 63 62 62 62 61 61 62 61 60 60 59 57 57
63 63 63 63 64 63 63 62 62 63 63 62 63 62 62 61 60 61 60 60 59 59
63 63 63 61 61 61 61 61 61 61 61 61 61 61 60 59 59 60 60 59 59 59
62 62 60 60 60 60 60 61 61 60 60 59 59 54 53 57 58 58 58 56 54 47
61 60 60 60 60 59 59 60 60 60 60 59 59 53 52 52 58 57 57 54 50 47
60 60 59 59 59 59 59 59 58 58 59 58 58 52 52 51 57 53 50 51 51 48
59 58 57 57 57 58 58 58 58 58 58 58 55 49 49 50 47 43 42 43 43 42
52 56 56 57 56 52 57 53 51 49 50 49 46 46 47 47 44 39 38 39 41 42
42 45 48 46 45 47 45 44 43 42 42 42 43 44 46 45 42 39 37 37 37 39
MSLP
1006.63 1007.70 1008.75 1009.38 1010.02 1010.80 1011.96 1012.60 1013.52 1014.17 1014.90 1015.31 1015.84 1016.28 1016.88 1017.64 1018.19 1018.73 1019.27 1019.73 1020.10 1020.43
1006.20 1007.28 1008.25 1008.98 1009.63 1010.43 1011.35 1012.28 1013.12 1013.88 1014.47 1015.03 1015.52 1015.88 1016.61 1017.20 1017.72 1018.08 1018.67 1019.20 1019.57 1019.94
1005.61 1006.88 1007.64 1008.49 1009.23 1009.83 1010.81 1011.74 1012.53 1013.32 1014.05 1014.65 1015.14 1015.69 1016.09 1016.71 1017.25 1017.67 1018.19 1018.55 1019.08 1019.45
1005.31 1006.36 1007.30 1007.98 1008.61 1009.37 1010.23 1011.08 1011.80 1012.48 1013.42 1014.09 1014.69 1015.07 1015.46 1016.07 1016.40 1016.91 1017.55 1018.05 1018.28 1018.82
1004.76 1005.76 1006.74 1007.43 1008.00 1008.71 1009.42 1010.18 1010.98 1011.94 1012.77 1013.28 1013.73 1014.12 1014.52 1015.11 1015.68 1016.20 1016.50 1016.91 1017.62 1017.88
1004.43 1005.34 1005.96 1006.49 1007.14 1007.84 1008.70 1009.56 1010.40 1011.18 1011.86 1012.37 1012.88 1013.42 1013.87 1014.44 1014.88 1015.24 1015.68 1015.96 1016.36 1016.77
1004.03 1004.52 1005.03 1005.82 1006.46 1007.25 1007.96 1008.79 1009.54 1010.14 1010.80 1011.47 1012.07 1012.65 1013.13 1013.60 1014.14 1014.64 1014.80 1014.99 1015.38 1015.88
1003.51 1003.97 1004.59 1005.28 1005.99 1006.80 1007.57 1008.30 1008.93 1009.63 1010.22 1010.85 1011.39 1011.87 1012.42 1012.87 1013.46 1013.73 1014.01 1014.25 1014.62 1014.97
1003.03 1003.69 1004.13 1004.82 1005.54 1006.27 1007.08 1007.69 1008.36 1008.86 1009.55 1010.15 1010.64 1011.04 1011.56 1012.12 1012.66 1012.96 1013.41 1013.63 1014.07 1014.76
1002.44 1002.97 1003.61 1004.37 1005.00 1005.67 1006.31 1006.86 1007.54 1008.11 1008.74 1009.24 1009.69 1010.30 1010.71 1011.32 1011.93 1012.31 1012.70 1013.06 1013.89 1014.72
1001.86 1002.42 1003.07 1003.82 1004.44 1005.14 1005.70 1006.13 1006.74 1007.39 1007.94 1008.40 1008.80 1009.35 1009.87 1010.44 1011.23 1011.86 1012.29 1012.72 1013.32 1014.02
1000.69 999.89 1002.22 1003.11 1003.86 1004.52 1005.25 1005.77 1006.27 1006.67 1007.30 1007.83 1008.26 1008.72 1009.28 1010.16 1011.19 1012.24 1012.87 1013.18 1013.56 1014.12
1001.17 1000.29 1001.49 1002.40 1003.33 1004.10 1004.72 1005.37 1005.87 1006.55 1007.06 1007.58 1008.35 1008.75 1009.24 1010.01 1010.92 1012.12 1013.05 1014.01 1014.61 1015.02
1002.62 1001.37 1001.55 1002.34 1003.10 1003.80 1004.76 1005.50 1006.28 1007.00 1007.85 1008.26 1008.67 1009.55 1009.83 1010.05 1010.89 1012.07 1013.42 1014.25 1015.21 1015.59
Wind_Speed
18 13 13 16 13 11 11 11 13 12 11 12 11 10 9 7 7 7 6 8 5 4
17 16 14 16 14 11 12 10 13 13 12 11 12 11 10 8 9 8 7 7 6 4
18 17 16 15 16 15 12 14 14 14 13 12 11 11 10 7 7 9 6 6 7 6
17 17 15 15 15 15 14 15 15 15 15 14 13 12 11 11 11 12 9 7 8 9
16 16 16 15 16 16 16 15 15 15 16 15 15 15 15 13 11 13 13 12 10 11
13 16 16 17 17 15 16 15 15 15 16 16 15 14 13 14 13 13 13 12 13 12
14 15 17 15 16 15 14 15 15 16 15 15 14 14 14 13 12 13 12 12 13 12
15 14 14 14 14 14 14 14 14 14 13 13 12 11 13 12 13 12 12 11 11 10
14 13 13 14 15 15 15 14 14 13 13 13 11 15 17 14 12 13 12 11 7 7
15 14 14 14 14 15 16 14 15 15 16 16 16 17 19 18 12 11 11 8 9 7
13 16 14 13 14 15 13 15 13 14 14 13 13 17 19 19 14 7 4 6 9 10
17 14 15 15 14 12 11 11 12 10 12 14 9 14 17 15 8 7 7 6 7 10
2 11 14 14 13 6 10 7 7 6 5 6 6 8 14 13 7 9 7 7 9 13
5 7 4 7 3 6 7 8 7 8 6 8 9 8 10 14 10 10 9 9 8 7
Wind_Direction
161 165 172 173 167 170 175 179 173 179 180 180 178 172 173 176 181 183 187 188 186 188
164 169 173 177 174 168 173 175 175 180 181 179 180 179 174 183 187 183 191 201 194 187
167 174 176 176 178 175 172 175 177 180 185 187 183 181 179 180 184 188 195 195 192 196
169 173 177 180 178 175 171 176 178 182 186 188 188 185 185 191 186 194 195 197 193 207
171 174 175 179 179 176 178 178 178 183 189 190 190 190 193 194 196 202 198 196 195 207
170 175 178 180 182 177 176 175 181 182 189 192 196 194 197 199 202 200 205 200 201 205
183 180 184 184 178 175 173 177 182 186 189 192 191 195 195 199 202 212 210 202 205 198
191 187 183 177 174 174 176 180 182 183 187 189 188 193 196 201 205 210 210 204 206 207
190 186 178 174 175 176 184 186 187 192 194 195 199 199 196 202 206 207 209 203 186 134
194 190 186 181 179 184 189 189 195 200 204 207 208 199 200 202 210 206 211 200 164 156
203 189 182 188 190 192 192 190 191 197 200 202 209 196 199 199 208 187 163 168 176 169
186 190 177 183 187 186 187 189 194 195 199 205 205 190 190 173 137 115 103 106 116 132
210 202 177 181 181 172 179 175 158 139 153 152 138 139 151 144 137 124 110 86 90 103
40 355 125 118 116 130 122 111 102 102 83 101 115 116 123 130 132 131 118 113 106 105